This is the latest recevied weather packets stored in our database for station/object F1PPH-3. If no packets are shown the sender has not sent any weather packets the latest 10 day(s).
| Time | Temp. | Humidity | Pressure | Rain* | Wind** | Luminosity | Snow |
|---|---|---|---|---|---|---|---|
| 1777729735 | 27.22° C | 38% | 1009.4 hPa | - | - | - | - |
| 1777726854 | 27.22° C | 38% | 1010 hPa | - | - | - | - |
| 1777723976 | 27.22° C | 38% | 1009.9 hPa | - | - | - | - |
| 1777717493 | 27.22° C | 38% | 1010.5 hPa | - | - | - | - |
| 1777714614 | 27.22° C | 38% | 1009.9 hPa | - | - | - | - |
| 1777711732 | 26.67° C | 39% | 1010.4 hPa | - | - | - | - |
| 1777708854 | 26.67° C | 39% | 1010.9 hPa | - | - | - | - |
| 1777702371 | 26.11° C | 39% | 1011.4 hPa | - | - | - | - |
| 1777692290 | 26.11° C | 38% | 1011.8 hPa | - | - | - | - |
| 1777689410 | 26.67° C | 38% | 1012 hPa | - | - | - | - |
| 1777679419 | 27.22° C | 38% | 1013.5 hPa | - | - | - | - |
| 1777672656 | 28.33° C | 37% | 1013.7 hPa | - | - | - | - |
| 1777665455 | 28.89° C | 37% | 1013.7 hPa | - | - | - | - |
| 1777661870 | 29.44° C | 37% | 1013 hPa | - | - | - | - |
| 1777658586 | 29.44° C | 37% | 1012.8 hPa | - | - | - | - |
| 1777655705 | 29.44° C | 37% | 1012.6 hPa | - | - | - | - |
| 1777652106 | 29.44° C | 36% | 1012.4 hPa | - | - | - | - |
| 1777649224 | 29.44° C | 36% | 1012.8 hPa | - | - | - | - |
| 1777642744 | 28.33° C | 37% | 1013.7 hPa | - | - | - | - |
| 1777639864 | 28.33° C | 37% | 1014 hPa | - | - | - | - |
| 1777634103 | 27.22° C | 37% | 1014.8 hPa | - | - | - | - |
| 1777631223 | 27.22° C | 37% | 1015 hPa | - | - | - | - |
| 1777628347 | 26.67° C | 36% | 1014.9 hPa | - | - | - | - |
| 1777625463 | 26.11° C | 36% | 1014.8 hPa | - | - | - | - |
| 1777622582 | 26.11° C | 36% | 1014.6 hPa | - | - | - | - |
* Rain since midnight (hover to see other rain measurements)
** Current wind speed in m/s (hover to see current wind gust speed)